Weather in Novye Vikri

Russia / Republic of Dagestan     42°17′52″N   47°59′42″E
temp.,
°C
wind,
m/s
gust,
m/s
humid.,
%
clouds,
%
prec.,
mm/h
press.,
hPa
HPBL,
m
13 may, thu
thu1300:00+11ssw00856 0.0 101511
03:00+11sse11853 0.0 101413
06:00+13se23814 0.0 1015118
09:00+20e33583 0.0 1014495
12:00+21e43521 0.0 1014558
15:00+22ene325140 0.0 1014464
18:00+17ene116614 0.0 1014104
21:00+14w11805 0.0 101515
14 may, fri
fri1400:00+14sse117726 0.0 101411
03:00+14s11764 0.0 101411
06:00+17s11635 0.0 101537
09:00+25ese344174 0.0 1014432
12:00+28ese6103497 0.0 1014925
15:00+27ese6113534 0.0 1013934
18:00+22se2446100 0.0 101491
21:00+19ssw1252100 0.0 101421
15 may, sat
sat1500:00+17ssw015757 0.0 101415
03:00+16ssw11595 0.0 101312
06:00+20ssw11551 0.0 101326
09:00+26ese48320 0.0 1013687
12:00+29ese79180 0.0 10131197
15:00+28ese69190 0.0 10131069
18:00+23ese23360 0.0 101353
21:00+19wsw22380 0.0 101312
16 may, sun
sun1600:00+17sw11420 0.0 101312
03:00+17sw11480 0.0 101211
06:00+20ssw12480 0.0 101234
09:00+27ese49250 0.0 1011907
12:00+29ese710230 0.0 10091280
15:00+28ese711240 0.0 10081070
18:00+24ese47370 0.0 1007217
21:00+17ese11560 0.0 100742
17 may, mon
mon1700:00+17sse01600 0.0 100615
03:00+17s11500 0.0 100615
06:00+19se014624 0.0 100643
09:00+25ne323650 0.0 1005407
12:00+26ne32355 0.0 1004564
15:00+25ne32370 0.0 1004432
18:00+20nne22574 0.1 1004126
21:00+17nnw236883 0.1 100552